Morrisville, VT

7:25 AM EST on November 19, 2019 (GMT -0500)
Morrisville Stowe State

Weather History for KMVL - October, 2019

Change the Weather History Date:

Wednesday, October 16, 2019

  Actual Average Record
Temperature  
Mean Temperature 44 °F 46 °F  
Max Temperature 59 °F 56 °F 72 °F (2014)
Min Temperature 28 °F 35 °F 28 °F (1997)
Degree Days  
Heating Degree Days 22 20  
Month to date heating degree days 260 268  
Since 1 July heating degree days 550 600  
Cooling Degree Days 0 0  
Month to date cooling degree days 0 0  
Year to date cooling degree days 254 265  
Moisture  
Dew Point 37 °F    
Average Humidity 77    
Maximum Humidity 96    
Minimum Humidity 47    
Precipitation  
Precipitation 0.21 in 0.08 in 1.02 in (2005)
Month to date precipitation 4.01 1.69  
Year to date precipitation 34.57 28.82  
Sea Level Pressure  
Sea Level Pressure 29.84 in    
Wind  
Wind Speed 4 mph ()    
Max Wind Speed 21 mph    
Max Gust Speed 30 mph    
Visibility 9.8 miles    
Events Rain    
T = Trace of Precipitation, MM = Missing Value Source: Averaged Metar Reports

Daily Weather History Graph

Daily Weather History Graph

Search for Another Location

Airport or City:

Astronomy

Oct. 16, 2019 Rise Set
Actual Time 7:06 AM EDT 6:04 PM EDT
Civil Twilight 6:37 AM EDT 6:34 PM EDT
Nautical Twilight 6:03 AM EDT 7:07 PM EDT
Astronomical Twilight 5:29 AM EDT 7:41 PM EDT
Moon 7:51 PM EDT (10/16) 9:38 AM EDT (10/16)
Length of Visible Light 11h 56m
Length of Day
10h 58m
Waning Gibbous, 93% of the Moon is Illuminated
Oct 16
Waning Gibbous
Oct 21
Last Quarter
Oct 27
New
Nov 4
First Quarter
Nov 12
Full

Hourly Weather History & Observations

Time (EDT) Temp. Windchill Dew Point Humidity Pressure Visibility Wind Dir Wind Speed Gust Speed Precip Events Conditions
12:54 AM 32.0 °F - 30.0 °F 92% 30.09 in 10.0 mi Calm Calm - N/A   Clear
1:54 AM 30.9 °F - 30.0 °F 96% 30.07 in 10.0 mi Calm Calm - N/A   Clear
2:54 AM 30.0 °F - 28.9 °F 96% 30.07 in 10.0 mi Calm Calm - N/A   Clear
3:54 AM 30.0 °F - 28.0 °F 92% 30.06 in 10.0 mi Calm Calm - N/A   Clear
4:54 AM 30.0 °F - 28.0 °F 92% 30.05 in 10.0 mi Calm Calm - N/A   Clear
5:54 AM 28.9 °F - 28.0 °F 96% 30.05 in 10.0 mi Calm Calm - N/A   Clear
6:54 AM 30.0 °F 25.2 °F 28.0 °F 92% 30.02 in 10.0 mi SSW 4.6 mph - N/A   Clear
7:54 AM 32.0 °F - 30.9 °F 96% 30.02 in 10.0 mi Calm Calm - N/A   Clear
8:54 AM 36.0 °F - 34.0 °F 93% 29.99 in 10.0 mi Calm Calm - N/A   Clear
9:54 AM 46.0 °F - 37.9 °F 73% 29.96 in 10.0 mi Calm Calm - N/A   Clear
10:54 AM 53.1 °F - 39.0 °F 59% 29.92 in 10.0 mi South 10.4 mph - N/A   Clear
11:54 AM 55.0 °F - 39.0 °F 55% 29.89 in 10.0 mi South 15.0 mph 25.3 mph N/A   Clear
12:54 PM 57.9 °F - 37.9 °F 47% 29.85 in 10.0 mi SSE 17.3 mph 26.5 mph N/A   Clear
1:54 PM 57.9 °F - 37.9 °F 47% 29.84 in 10.0 mi SSE 11.5 mph 21.9 mph N/A   Clear
2:54 PM 57.9 °F - 39.0 °F 49% 29.81 in 10.0 mi South 13.8 mph 19.6 mph N/A   Clear
3:54 PM 57.0 °F - 39.0 °F 51% 29.81 in 10.0 mi South 13.8 mph 23.0 mph N/A   Clear
4:54 PM 55.9 °F - 39.9 °F 55% 29.79 in 10.0 mi South 9.2 mph 21.9 mph N/A   Mostly Cloudy
5:54 PM 55.0 °F - 39.9 °F 57% 29.75 in 10.0 mi SSE 12.7 mph - N/A   Scattered Clouds
6:54 PM 54.0 °F - 39.9 °F 59% 29.73 in 10.0 mi SSE 11.5 mph - N/A   Overcast
7:54 PM 53.1 °F - 39.0 °F 59% 29.69 in 10.0 mi West 3.5 mph - N/A   Overcast
8:54 PM 50.0 °F - 43.0 °F 77% 29.68 in 10.0 mi South 5.8 mph - 0.00 in Rain Light Rain
9:54 PM 48.0 °F - 45.0 °F 89% 29.64 in 9.0 mi North 3.5 mph - 0.06 in Rain Light Rain
10:13 PM 48.0 °F - 45.0 °F 89% 29.61 in 7.0 mi WNW 3.5 mph - 0.03 in Rain Light Rain
10:54 PM 48.0 °F - 44.1 °F 86% 29.59 in 10.0 mi Calm Calm - 0.08 in Rain Light Rain
11:01 PM 46.9 °F - 45.0 °F 93% 29.57 in 9.0 mi Variable 3.5 mph - 0.01 in Rain Light Rain
11:52 PM 46.4 °F 41.5 °F 44.6 °F 93% 29.51 in 10.0 mi North 10.4 mph - 0.03 in Rain Light Rain
11:54 PM 46.9 °F - 44.1 °F 90% 29.51 in 10.0 mi NNW 9.2 mph - 0.04 in Rain Light Rain